Flag for U.S.A. Weather past 2 weeks in Chico, California, U.S.A.

Now
77 °F

Partly sunny.


Feels Like: 78 °F
Forecast: 58 / 84 °F
Wind: 8 mph from Southeast

Location: Chico Municipal

Current Time: May 25, 2015 at 9:28:06 PM

Latest Report: May 25, 2015 at 8:35 PM


Visibility: 10 mi

Pressure: 29.84 "Hg

Humidity: 39%

Dew point: 50 °F

Location of ChicoLocation

Historic Weather in Chico — Graph

°F

Chico temperature yesterday

Maximum temperature yesterday: 84 °F (at 1:50 PM)
Minimum temperature yesterday: 57 °F (at 4:15 AM)
Average temperature yesterday: 70 °F

Past Weeks' High & Low Weather Summary

 TemperatureHumidityPressure
High84 °F (May 24, 1:50 PM)88% (May 19, 5:55 AM)30.08 "Hg (May 19, 5:55 AM)
Low50 °F (May 14, 5:35 AM)17% (May 13, 4:49 PM)29.71 "Hg (May 14, 5:50 PM)
Average64 °F56%29.91 "Hg
* Reported May 10 7:15 PM — May 25 7:55 PM, Chico, Weather by CustomWeather, © 2015

Note: Actual official high and low records may vary slightly from our data, if they occured in-between our weather recording intervals... More about our weather records

Advertising

Chico weather history for previous 24 hours

 ConditionsComfort  
Time TempWeatherWind HumidityBarometerVisibility
7:55 PM
Mon, May 25
79 °FPartly sunny.12 mph37%29.82 "Hg10 mi
7:35 PM81 °FScattered clouds.14 mph32%29.82 "Hg10 mi
7:15 PM81 °FPassing clouds.15 mph32%29.82 "Hg10 mi
6:55 PM81 °FSunny.15 mph34%29.81 "Hg10 mi
5:48 PM84 °FScattered clouds.12 mph27%29.81 "Hg40 mi
4:48 PM84 °FScattered clouds.12 mph27%29.83 "Hg40 mi
3:48 PM82 °FScattered clouds.12 mph30%29.84 "Hg40 mi
2:48 PM81 °FScattered clouds.12 mph32%29.85 "Hg40 mi
12:48 PM75 °FScattered clouds.6 mph44%29.89 "Hg40 mi
11:48 AM72 °FPassing clouds.6 mph50%29.91 "Hg40 mi
10:48 AM68 °FPassing clouds.6 mph53%29.93 "Hg40 mi
9:50 AM64 °FSunny.6 mph60%29.93 "Hg40 mi
8:50 AM63 °FPassing clouds.6 mph64%29.93 "Hg40 mi
7:55 AM59 °FPassing clouds.6 mph72%29.92 "Hg40 mi
6:55 AM57 °FPassing clouds.9 mph77%29.92 "Hg40 mi
6:35 AM57 °FClear.7 mph77%29.91 "Hg10 mi
6:15 AM55 °FClear.8 mph82%29.91 "Hg10 mi
5:55 AM57 °FClear.6 mph77%29.91 "Hg10 mi
5:35 AM57 °FClear.7 mph77%29.90 "Hg10 mi
5:15 AM57 °FClear.6 mph77%29.90 "Hg10 mi
4:55 AM57 °FClear.7 mph77%29.90 "Hg10 mi
4:35 AM57 °FClear.7 mph77%29.89 "Hg10 mi
4:15 AM59 °FClear.9 mph72%29.89 "Hg10 mi
3:55 AM59 °FPassing clouds.13 mph72%29.88 "Hg10 mi
3:35 AM59 °FPassing clouds.12 mph72%29.88 "Hg10 mi
3:15 AM61 °FPassing clouds.10 mph68%29.88 "Hg10 mi
2:55 AM61 °FPassing clouds.12 mph68%29.88 "Hg10 mi
2:35 AM63 °FPassing clouds.13 mph68%29.88 "Hg10 mi
2:15 AM63 °FClear.9 mph73%29.88 "Hg10 mi
1:55 AM64 °FClear.9 mph68%29.87 "Hg10 mi
1:35 AM64 °FClear.12 mph68%29.87 "Hg10 mi
1:15 AM66 °FClear.12 mph60%29.86 "Hg10 mi
12:55 AM66 °FClear.13 mph60%29.86 "Hg10 mi
12:35 AM68 °FClear.13 mph53%29.85 "Hg10 mi
12:15 AM70 °FClear.12 mph50%29.85 "Hg10 mi
11:55 PM
Sun, May 24
72 °FClear.12 mph47%29.85 "Hg10 mi
11:35 PM72 °FClear.15 mph47%29.85 "Hg10 mi
11:15 PM73 °FClear.16 mph44%29.85 "Hg10 mi
10:55 PM73 °FClear.14 mph44%29.85 "Hg10 mi
10:35 PM75 °FClear.10 mph41%29.85 "Hg10 mi
10:15 PM75 °FClear.9 mph41%29.84 "Hg10 mi
9:55 PM77 °FClear.14 mph42%29.84 "Hg10 mi
9:35 PM77 °FClear.15 mph42%29.83 "Hg10 mi
Weather by CustomWeather, © 2015

See weather overviewHow to use our weather pages